timestamp,surface_pressure_avg,surface_temp_avg,battery_voltage,lat,long
2021-12-17 00:09:00+00:00,293.0447,5.06,12.65,47.84626,-54.09684
2021-12-17 00:19:00+00:00,290.8763,5.05,12.57,47.84626,-54.09684
2021-12-17 00:29:00+00:00,287.1897,5.0,12.57,47.84626,-54.09684
2021-12-17 00:39:00+00:00,277.1097,5.0,12.57,47.84626,-54.09684
2021-12-17 00:49:00+00:00,271.1348,5.0,12.57,47.84626,-54.09684
2021-12-17 00:59:00+00:00,267.8514,5.0,12.57,47.84626,-54.09684
2021-12-17 01:09:00+00:00,261.1414,5.0,12.57,47.84626,-54.09684
2021-12-17 01:19:01+00:00,253.7897,4.9,12.57,47.84626,-54.09684
2021-12-17 01:29:01+00:00,249.4731,4.7,12.57,47.84626,-54.09684
2021-12-17 01:39:01+00:00,247.6831,4.7,12.57,47.84626,-54.09684
2021-12-17 01:49:01+00:00,244.5014,4.66,12.57,47.84626,-54.09684
2021-12-17 01:59:01+00:00,240.0381,4.6,12.57,47.84626,-54.09684
2021-12-17 02:09:01+00:00,232.2631,4.2,12.57,47.84626,-54.09684
2021-12-17 02:19:01+00:00,228.5914,4.19,12.57,47.84626,-54.09684
2021-12-17 02:29:01+00:00,224.6797,4.1,12.57,47.84626,-54.09684
2021-12-17 02:39:01+00:00,221.8347,4.12,12.57,47.84626,-54.09684
2021-12-17 02:49:01+00:00,217.5031,4.19,12.57,47.84626,-54.09684
2021-12-17 02:59:01+00:00,213.6864,4.23,12.57,47.84626,-54.09684
2021-12-17 03:09:01+00:00,211.7598,4.31,12.57,47.84626,-54.09684
2021-12-17 03:19:00+00:00,211.7864,4.42,12.57,47.84626,-54.09684
2021-12-17 03:29:00+00:00,211.1181,4.59,12.57,47.84626,-54.09684
2021-12-17 03:39:00+00:00,211.7598,4.6,12.57,47.84626,-54.09684
2021-12-17 03:49:00+00:00,210.8715,4.5,12.57,47.84626,-54.09684
2021-12-17 03:59:00+00:00,210.6064,4.69,12.57,47.84626,-54.09684
2021-12-17 04:09:00+00:00,213.2464,4.7,12.57,47.84626,-54.09684
2021-12-17 04:19:00+00:00,215.1814,4.2,12.57,47.84626,-54.09684
2021-12-17 04:29:00+00:00,212.4598,4.44,12.57,47.84626,-54.09684
2021-12-17 04:39:00+00:00,209.6948,4.68,12.57,47.84626,-54.09684
2021-12-17 04:49:00+00:00,213.4098,4.94,12.57,47.84626,-54.09684
2021-12-17 04:59:00+00:00,214.4331,4.99,12.57,47.84626,-54.09684
2021-12-17 05:09:00+00:00,212.0164,5.0,12.57,47.84626,-54.09684
2021-12-17 05:19:00+00:00,215.0048,5.0,12.57,47.84626,-54.09684
2021-12-17 05:29:00+00:00,223.5448,4.88,12.57,47.84626,-54.09684
2021-12-17 05:39:00+00:00,228.1531,5.0,12.57,47.84626,-54.09684
2021-12-17 05:49:00+00:00,230.4364,5.0,12.57,47.84626,-54.09684
2021-12-17 05:59:00+00:00,234.5214,5.0,12.57,47.84626,-54.09684
2021-12-17 06:09:00+00:00,240.4964,5.0,12.57,47.84626,-54.09684
2021-12-17 06:19:01+00:00,241.9564,4.9,12.57,47.84626,-54.09684
2021-12-17 06:29:01+00:00,241.3931,4.8,12.57,47.84626,-54.09684
2021-12-17 06:39:01+00:00,245.1864,4.7,12.57,47.84626,-54.09684
2021-12-17 06:49:01+00:00,254.0031,4.7,12.57,47.84626,-54.09684
2021-12-17 06:59:01+00:00,256.428,4.6,12.57,47.84626,-54.09684
2021-12-17 07:09:01+00:00,255.2881,4.5,12.57,47.84626,-54.09684
2021-12-17 07:19:00+00:00,257.5831,4.5,12.49,47.84626,-54.09684
2021-12-17 07:29:00+00:00,269.0147,4.43,12.49,47.84626,-54.09684
2021-12-17 07:39:00+00:00,273.2498,4.5,12.49,47.84626,-54.09684
2021-12-17 07:49:00+00:00,274.9164,4.4,12.49,47.84626,-54.09684
2021-12-17 07:59:00+00:00,281.5681,4.6,12.49,47.84626,-54.09684
2021-12-17 08:09:00+00:00,291.3664,4.7,12.49,47.84626,-54.09684
2021-12-17 08:19:00+00:00,294.1397,4.87,12.49,47.84626,-54.09684
2021-12-17 08:29:00+00:00,302.6247,4.8,12.49,47.84626,-54.09684
2021-12-17 08:39:00+00:00,315.0447,4.8,12.49,47.84626,-54.09684
2021-12-17 08:49:00+00:00,319.9714,4.8,12.49,47.84626,-54.09684
2021-12-17 08:59:00+00:00,322.0829,4.77,12.49,47.84626,-54.09684
2021-12-17 09:09:00+00:00,332.653,4.84,12.49,47.84626,-54.09684
2021-12-17 09:19:00+00:00,342.0796,4.9,12.49,47.84626,-54.09684
2021-12-17 09:29:00+00:00,341.4929,4.9,12.49,47.84626,-54.09684
2021-12-17 09:39:00+00:00,342.7296,4.8,12.49,47.84626,-54.09684
2021-12-17 09:49:00+00:00,353.3196,4.8,12.49,47.84626,-54.09684
2021-12-17 09:59:00+00:00,358.1329,4.7,12.49,47.84626,-54.09684
2021-12-17 10:09:00+00:00,353.088,4.7,12.49,47.84626,-54.09684
2021-12-17 10:19:00+00:00,355.2646,4.7,12.49,47.84626,-54.09684
2021-12-17 10:29:00+00:00,361.6179,4.77,12.49,47.84626,-54.09684
2021-12-17 10:39:00+00:00,358.3196,4.78,12.49,47.84626,-54.09684
2021-12-17 10:49:00+00:00,352.7296,4.8,12.49,47.84626,-54.09684
2021-12-17 10:59:00+00:00,360.6946,4.8,12.49,47.84626,-54.09684
2021-12-17 11:09:00+00:00,363.8596,4.8,12.49,47.84626,-54.09684
2021-12-17 11:19:00+00:00,353.7263,4.6,12.57,47.84626,-54.09684
2021-12-17 11:29:00+00:00,351.82800000000015,4.6,12.57,47.84626,-54.09684
2021-12-17 11:39:00+00:00,352.8146,4.6,12.57,47.84626,-54.09684
2021-12-17 11:49:00+00:00,350.4479,4.6,12.57,47.84626,-54.09684
2021-12-17 11:59:00+00:00,341.4046,4.47,12.57,47.84626,-54.09684
2021-12-17 12:09:00+00:00,343.81300000000016,4.66,12.57,47.84626,-54.09684
2021-12-17 12:19:00+00:00,346.103,4.7,12.49,47.84626,-54.09684
2021-12-17 12:29:00+00:00,334.293,4.6,12.49,47.84626,-54.09684
2021-12-17 12:39:00+00:00,327.9046,4.59,12.49,47.84626,-54.09684
2021-12-17 12:49:00+00:00,328.9363,4.59,12.49,47.84626,-54.09684
2021-12-17 12:59:00+00:00,323.1813,4.55,12.49,47.84626,-54.09684
2021-12-17 13:09:00+00:00,309.0598,4.4,12.49,47.84626,-54.09684
2021-12-17 13:19:00+00:00,305.428,4.4,12.57,47.84626,-54.09684
2021-12-17 13:29:00+00:00,305.9714,4.49,12.57,47.84626,-54.09684
2021-12-17 13:39:00+00:00,295.3181,4.5,12.57,47.84626,-54.09684
2021-12-17 13:49:00+00:00,284.848,4.4,12.57,47.84626,-54.09684
2021-12-17 13:59:00+00:00,285.2014,4.48,12.57,47.84626,-54.09684
2021-12-17 14:09:00+00:00,279.843,4.58,12.57,47.84626,-54.09684
2021-12-17 14:19:01+00:00,265.8897,4.2,12.57,47.84626,-54.09684
2021-12-17 14:29:01+00:00,261.6098,4.1,12.57,47.84626,-54.09684
2021-12-17 14:39:01+00:00,260.9731,4.3,12.57,47.84626,-54.09684
2021-12-17 14:49:01+00:00,253.0315,4.4,12.57,47.84626,-54.09684
2021-12-17 14:59:01+00:00,247.4164,4.39,12.57,47.84626,-54.09684
2021-12-17 15:09:01+00:00,248.1464,4.33,12.57,47.84626,-54.09684
2021-12-17 15:19:00+00:00,242.7215,4.28,12.57,47.84626,-54.09684
2021-12-17 15:29:00+00:00,234.3214,4.1,12.57,47.84626,-54.09684
2021-12-17 15:39:00+00:00,235.2047,4.18,12.57,47.84626,-54.09684
2021-12-17 15:49:00+00:00,233.6447,4.29,12.57,47.84626,-54.09684
2021-12-17 15:59:00+00:00,224.9247,4.34,12.57,47.84626,-54.09684
2021-12-17 16:09:00+00:00,218.563,4.25,12.57,47.84626,-54.09684
2021-12-17 16:19:00+00:00,221.9947,4.2,12.57,47.84626,-54.09684
2021-12-17 16:29:00+00:00,223.0081,4.2,12.57,47.84626,-54.09684
2021-12-17 16:39:00+00:00,218.7515,4.1,12.57,47.84626,-54.09684
2021-12-17 16:49:00+00:00,216.1497,4.1,12.57,47.84626,-54.09684
2021-12-17 16:59:00+00:00,220.1931,4.14,12.57,47.84626,-54.09684
2021-12-17 17:09:00+00:00,219.9348,4.18,12.57,47.84626,-54.09684
2021-12-17 17:19:00+00:00,215.0914,4.18,12.57,47.84626,-54.09684
2021-12-17 17:29:00+00:00,223.7581,4.18,12.57,47.84626,-54.09684
2021-12-17 17:39:00+00:00,227.3281,4.2,12.57,47.84626,-54.09684
2021-12-17 17:49:00+00:00,221.6265,4.25,12.57,47.84626,-54.09684
2021-12-17 17:59:00+00:00,229.9014,4.27,12.57,47.84626,-54.09684
2021-12-17 18:09:00+00:00,241.9264,4.28,12.57,47.84626,-54.09684
2021-12-17 18:19:00+00:00,239.0547,4.2,12.57,47.84626,-54.09684
2021-12-17 18:29:00+00:00,236.3748,4.1,12.57,47.84626,-54.09684
2021-12-17 18:39:00+00:00,244.2848,4.1,12.57,47.84626,-54.09684
2021-12-17 18:49:00+00:00,243.9848,4.09,12.57,47.84626,-54.09684
2021-12-17 18:59:00+00:00,243.7647,4.06,12.57,47.84626,-54.09684
2021-12-17 19:09:00+00:00,245.4931,4.09,12.57,47.84626,-54.09684
2021-12-17 19:19:00+00:00,250.2364,4.1,12.57,47.84626,-54.09684
2021-12-17 19:29:00+00:00,257.6898,4.15,12.57,47.84626,-54.09684
2021-12-17 19:39:00+00:00,261.6981,4.18,12.57,47.84626,-54.09684
2021-12-17 19:49:00+00:00,267.313,4.1,12.57,47.84626,-54.09684
2021-12-17 19:59:00+00:00,282.8448,4.1,12.57,47.84626,-54.09684
2021-12-17 20:09:00+00:00,287.2047,4.1,12.57,47.84626,-54.09684
2021-12-17 20:19:00+00:00,281.5781,4.08,12.57,47.84626,-54.09684
2021-12-17 20:29:00+00:00,288.218,4.0,12.57,47.84626,-54.09684
2021-12-17 20:39:00+00:00,300.0397,4.0,12.57,47.84626,-54.09684
2021-12-17 20:49:00+00:00,306.0847,4.0,12.57,47.84626,-54.09684
2021-12-17 20:59:00+00:00,306.1397,4.0,12.57,47.84626,-54.09684
2021-12-17 21:09:00+00:00,322.8848,4.0,12.57,47.84626,-54.09684
2021-12-17 21:19:00+00:00,331.2896,3.99,12.57,47.84626,-54.09684
2021-12-17 21:29:00+00:00,332.1696,3.96,12.57,47.84626,-54.09684
2021-12-17 21:39:00+00:00,331.4379,4.0,12.57,47.84626,-54.09684
2021-12-17 21:49:00+00:00,342.1929,4.0,12.57,47.84626,-54.09684
2021-12-17 21:59:00+00:00,345.4296,3.95,12.57,47.84626,-54.09684
2021-12-17 22:09:00+00:00,348.6547,4.0,12.57,47.84626,-54.09684
2021-12-17 22:19:00+00:00,355.5129,4.0,12.57,47.84626,-54.09684
2021-12-17 22:29:00+00:00,357.4413,4.0,12.57,47.84626,-54.09684
2021-12-17 22:39:00+00:00,358.8463,4.06,12.57,47.84626,-54.09684
2021-12-17 22:49:00+00:00,358.2963,4.1,12.57,47.84626,-54.09684
2021-12-17 22:59:00+00:00,358.7463,4.1,12.57,47.84626,-54.09684
2021-12-17 23:09:00+00:00,358.6746,4.1,12.57,47.84626,-54.09684
2021-12-17 23:19:00+00:00,349.8996,4.2,12.57,47.84626,-54.09684
2021-12-17 23:29:00+00:00,344.2614,4.2,12.57,47.84626,-54.09684
2021-12-17 23:39:00+00:00,343.7896,4.2,12.57,47.84626,-54.09684
2021-12-17 23:49:00+00:00,345.3146,4.2,12.57,47.84626,-54.09684
2021-12-17 23:59:00+00:00,335.9512,4.19,12.57,47.84626,-54.09684
